contact:dominique.lefevre@mio.osupytheas.fr, maurice.libes@osupytheas.fr, didier.mallarino@osupytheas.fr
Project:EMSO http://www.emso-fr.org/EMSO-France
Depth: 2436.0 m
Title:EMSO Ligure Ouest : Data MII capteur CSTAR
DateTime,Latitude,Longitude,Instrument_Serial,Reference_Counts,Signal_Counts,Corrected_Signal_raw_counts,Calculated_Beam_c_inverse_meters,Internal_thermistor_counts
DateTime,Latitude,Longitude,Instrument_Serial,Reference_Counts,Signal_Counts,Corrected_Signal_raw_counts,Calculated_Beam_c_inverse_meters,Internal_thermistor_counts
2023-06-10T00:00:26,42.805,6.029,CST-1368DR,4293,4707,11640,01.175,552
2023-06-10T00:03:27,42.805,6.029,CST-1368DR,4293,4709,11644,01.174,552
2023-06-10T00:06:29,42.805,6.029,CST-1368DR,4293,4708,11642,01.175,552
2023-06-10T00:09:30,42.805,6.029,CST-1368DR,4293,4708,11642,01.175,552
2023-06-10T00:12:32,42.805,6.029,CST-1368DR,4293,4701,11624,01.181,552
2023-06-10T00:15:34,42.805,6.029,CST-1368DR,4293,4709,11644,01.174,552
2023-06-10T00:18:35,42.805,6.029,CST-1368DR,4293,4707,11640,01.175,552
2023-06-10T00:21:37,42.805,6.029,CST-1368DR,4293,4707,11639,01.176,552
2023-06-10T00:24:38,42.805,6.029,CST-1368DR,4293,4707,11640,01.175,552
2023-06-10T00:27:40,42.805,6.029,CST-1368DR,4293,4707,11640,01.175,552
2023-06-10T00:30:41,42.805,6.029,CST-1368DR,4293,4708,11642,01.175,552
2023-06-10T00:33:43,42.805,6.029,CST-1368DR,4293,4707,11639,01.176,552
2023-06-10T00:36:45,42.805,6.029,CST-1368DR,4293,4709,11645,01.174,552
2023-06-10T00:39:46,42.805,6.029,CST-1368DR,4293,4708,11642,01.175,552
2023-06-10T00:42:48,42.805,6.029,CST-1368DR,4293,4708,11642,01.175,552
2023-06-10T00:45:49,42.805,6.029,CST-1368DR,4293,4707,11640,01.175,552
2023-06-10T00:48:51,42.805,6.029,CST-1368DR,4293,4706,11637,01.176,552
2023-06-10T00:51:53,42.805,6.029,CST-1368DR,4293,4706,11636,01.177,552
2023-06-10T00:54:54,42.805,6.029,CST-1368DR,4293,4705,11635,01.177,552
2023-06-10T00:57:56,42.805,6.029,CST-1368DR,4293,4706,11637,01.176,552
2023-06-10T01:00:57,42.805,6.029,CST-1368DR,4293,4705,11634,01.177,552
2023-06-10T01:03:59,42.805,6.029,CST-1368DR,4293,4705,11635,01.177,552
2023-06-10T01:07:00,42.805,6.029,CST-1368DR,4293,4706,11637,01.176,552
2023-06-10T01:10:02,42.805,6.029,CST-1368DR,4293,4704,11633,01.178,552
2023-06-10T01:13:04,42.805,6.029,CST-1368DR,4293,4704,11631,01.178,552
2023-06-10T01:16:05,42.805,6.029,CST-1368DR,4293,4704,11633,01.178,552
2023-06-10T01:19:07,42.805,6.029,CST-1368DR,4293,4707,11639,01.176,552
2023-06-10T01:22:08,42.805,6.029,CST-1368DR,4293,4706,11638,01.176,552
2023-06-10T01:25:10,42.805,6.029,CST-1368DR,4293,4706,11636,01.177,552
2023-06-10T01:28:11,42.805,6.029,CST-1368DR,4293,4705,11634,01.177,552
2023-06-10T01:31:13,42.805,6.029,CST-1368DR,4293,4705,11635,01.177,552
2023-06-10T01:34:15,42.805,6.029,CST-1368DR,4293,4705,11634,01.177,552
2023-06-10T01:37:16,42.805,6.029,CST-1368DR,4293,4706,11636,01.177,552
2023-06-10T01:40:18,42.805,6.029,CST-1368DR,4293,4706,11637,01.176,552
2023-06-10T01:43:19,42.805,6.029,CST-1368DR,4293,4706,11637,01.176,552
2023-06-10T01:46:21,42.805,6.029,CST-1368DR,4293,4706,11638,01.176,552
2023-06-10T01:49:23,42.805,6.029,CST-1368DR,4293,4706,11637,01.176,552
2023-06-10T01:52:24,42.805,6.029,CST-1368DR,4293,4707,11639,01.176,552
2023-06-10T01:55:26,42.805,6.029,CST-1368DR,4293,4703,11629,01.179,552
2023-06-10T01:58:27,42.805,6.029,CST-1368DR,4293,4705,11635,01.177,552
2023-06-10T02:01:29,42.805,6.029,CST-1368DR,4293,4705,11634,01.177,552
2023-06-10T02:04:30,42.805,6.029,CST-1368DR,4293,4707,11640,01.175,552
2023-06-10T02:07:32,42.805,6.029,CST-1368DR,4293,4706,11638,01.176,552
2023-06-10T02:10:34,42.805,6.029,CST-1368DR,4293,4707,11640,01.175,552
2023-06-10T02:13:35,42.805,6.029,CST-1368DR,4293,4705,11635,01.177,552
2023-06-10T02:16:37,42.805,6.029,CST-1368DR,4293,4705,11635,01.177,552
2023-06-10T02:19:38,42.805,6.029,CST-1368DR,4293,4700,11623,01.181,552
2023-06-10T02:22:40,42.805,6.029,CST-1368DR,4293,4703,11631,01.178,552
2023-06-10T02:25:41,42.805,6.029,CST-1368DR,4293,4706,11637,01.176,552
2023-06-10T02:28:43,42.805,6.029,CST-1368DR,4293,4706,11637,01.176,552
2023-06-10T02:31:45,42.805,6.029,CST-1368DR,4293,4706,11638,01.176,552
2023-06-10T02:34:46,42.805,6.029,CST-1368DR,4293,4706,11637,01.176,552
2023-06-10T02:37:48,42.805,6.029,CST-1368DR,4293,4705,11634,01.177,552
2023-06-10T02:40:49,42.805,6.029,CST-1368DR,4293,4703,11629,01.179,552
2023-06-10T02:43:51,42.805,6.029,CST-1368DR,4293,4706,11637,01.176,552
2023-06-10T02:46:53,42.805,6.029,CST-1368DR,4293,4704,11633,01.178,552
2023-06-10T02:49:54,42.805,6.029,CST-1368DR,4293,4704,11631,01.178,552
2023-06-10T02:52:56,42.805,6.029,CST-1368DR,4293,4705,11635,01.177,552
2023-06-10T02:55:57,42.805,6.029,CST-1368DR,4293,4705,11634,01.177,552
2023-06-10T02:58:59,42.805,6.029,CST-1368DR,4293,4704,11633,01.178,552
2023-06-10T03:02:00,42.805,6.029,CST-1368DR,4293,4704,11633,01.178,552
2023-06-10T03:05:02,42.805,6.029,CST-1368DR,4293,4704,11633,01.178,552
2023-06-10T03:08:04,42.805,6.029,CST-1368DR,4293,4709,11644,01.174,552
2023-06-10T03:11:05,42.805,6.029,CST-1368DR,4293,4704,11633,01.178,552
2023-06-10T03:14:07,42.805,6.029,CST-1368DR,4293,4702,11627,01.180,552
2023-06-10T03:17:08,42.805,6.029,CST-1368DR,4293,4701,11625,01.181,552
2023-06-10T03:20:10,42.805,6.029,CST-1368DR,4293,4662,11527,01.214,552
2023-06-10T03:23:11,42.805,6.029,CST-1368DR,4293,4706,11636,01.177,552
2023-06-10T03:26:13,42.805,6.029,CST-1368DR,4293,4703,11631,01.178,552
2023-06-10T03:29:15,42.805,6.029,CST-1368DR,4293,4705,11634,01.177,552
2023-06-10T03:32:16,42.805,6.029,CST-1368DR,4293,4703,11630,01.179,552
2023-06-10T03:35:18,42.805,6.029,CST-1368DR,4293,4702,11628,01.180,552
2023-06-10T03:38:19,42.805,6.029,CST-1368DR,4293,4702,11627,01.180,552
2023-06-10T03:41:21,42.805,6.029,CST-1368DR,4293,4702,11627,01.180,552
2023-06-10T03:44:23,42.805,6.029,CST-1368DR,4293,4702,11627,01.180,552
2023-06-10T03:47:24,42.805,6.029,CST-1368DR,4293,4703,11629,01.179,552
2023-06-10T03:50:26,42.805,6.029,CST-1368DR,4293,4703,11629,01.179,552
2023-06-10T03:53:27,42.805,6.029,CST-1368DR,4293,4703,11631,01.178,552
2023-06-10T03:56:29,42.805,6.029,CST-1368DR,4293,4698,11618,01.183,552
2023-06-10T03:59:30,42.805,6.029,CST-1368DR,4293,4702,11627,01.180,552
2023-06-10T04:02:32,42.805,6.029,CST-1368DR,4293,4705,11635,01.177,552
2023-06-10T04:05:34,42.805,6.029,CST-1368DR,4293,4705,11635,01.177,552
2023-06-10T04:08:35,42.805,6.029,CST-1368DR,4293,4706,11636,01.177,552
2023-06-10T04:11:37,42.805,6.029,CST-1368DR,4293,4702,11627,01.180,552
2023-06-10T04:14:38,42.805,6.029,CST-1368DR,4293,4704,11633,01.178,552
2023-06-10T04:17:40,42.805,6.029,CST-1368DR,4293,4704,11631,01.178,552
2023-06-10T04:20:42,42.805,6.029,CST-1368DR,4293,4700,11622,01.182,552
2023-06-10T04:23:43,42.805,6.029,CST-1368DR,4293,4706,11638,01.176,552
2023-06-10T04:26:45,42.805,6.029,CST-1368DR,4293,4705,11634,01.177,552
2023-06-10T04:29:46,42.805,6.029,CST-1368DR,4293,4706,11636,01.177,552
2023-06-10T04:32:49,42.805,6.029,CST-1368DR,4293,4706,11638,01.176,552
2023-06-10T04:35:51,42.805,6.029,CST-1368DR,4293,4701,11626,01.180,552
2023-06-10T04:38:53,42.805,6.029,CST-1368DR,4293,4703,11629,01.179,552
2023-06-10T04:41:54,42.805,6.029,CST-1368DR,4293,4706,11636,01.177,552
2023-06-10T04:44:56,42.805,6.029,CST-1368DR,4293,4708,11643,01.174,552
2023-06-10T04:47:57,42.805,6.029,CST-1368DR,4293,4706,11637,01.176,552
2023-06-10T04:50:59,42.805,6.029,CST-1368DR,4293,4706,11638,01.176,552
2023-06-10T04:54:01,42.805,6.029,CST-1368DR,4293,4708,11643,01.174,552
2023-06-10T04:57:02,42.805,6.029,CST-1368DR,4293,4708,11642,01.175,552
2023-06-10T05:00:04,42.805,6.029,CST-1368DR,4293,4706,11636,01.177,552
2023-06-10T05:03:05,42.805,6.029,CST-1368DR,4293,4704,11633,01.178,552
2023-06-10T05:06:07,42.805,6.029,CST-1368DR,4293,4705,11634,01.177,552
2023-06-10T05:09:08,42.805,6.029,CST-1368DR,4293,4706,11638,01.176,552
2023-06-10T05:12:10,42.805,6.029,CST-1368DR,4293,4706,11638,01.176,552
2023-06-10T05:15:12,42.805,6.029,CST-1368DR,4293,4702,11627,01.180,552
2023-06-10T05:18:13,42.805,6.029,CST-1368DR,4293,4704,11631,01.178,552
2023-06-10T05:21:15,42.805,6.029,CST-1368DR,4293,4705,11634,01.177,552
2023-06-10T05:24:16,42.805,6.029,CST-1368DR,4293,4706,11636,01.177,552
2023-06-10T05:27:18,42.805,6.029,CST-1368DR,4293,4704,11633,01.178,552
2023-06-10T05:30:19,42.805,6.029,CST-1368DR,4293,4704,11633,01.178,552
2023-06-10T05:33:21,42.805,6.029,CST-1368DR,4293,4706,11638,01.176,552
2023-06-10T05:36:23,42.805,6.029,CST-1368DR,4293,4706,11636,01.177,552
2023-06-10T05:39:24,42.805,6.029,CST-1368DR,4293,4703,11629,01.179,552
2023-06-10T05:42:26,42.805,6.029,CST-1368DR,4293,4707,11639,01.176,552
2023-06-10T05:45:27,42.805,6.029,CST-1368DR,4293,4705,11634,01.177,552
2023-06-10T05:48:29,42.805,6.029,CST-1368DR,4293,4704,11631,01.178,552
2023-06-10T05:51:31,42.805,6.029,CST-1368DR,4293,4705,11635,01.177,552
2023-06-10T05:54:32,42.805,6.029,CST-1368DR,4293,4705,11635,01.177,552
2023-06-10T05:57:34,42.805,6.029,CST-1368DR,4293,4704,11633,01.178,552
2023-06-10T06:00:35,42.805,6.029,CST-1368DR,4293,4705,11634,01.177,552
2023-06-10T06:03:37,42.805,6.029,CST-1368DR,4293,4704,11633,01.178,552
2023-06-10T06:06:38,42.805,6.029,CST-1368DR,4293,4700,11623,01.181,552
2023-06-10T06:09:40,42.805,6.029,CST-1368DR,4293,4701,11625,01.181,552
2023-06-10T06:12:42,42.805,6.029,CST-1368DR,4293,4704,11631,01.178,552
2023-06-10T06:15:43,42.805,6.029,CST-1368DR,4293,4703,11629,01.179,552
2023-06-10T06:18:45,42.805,6.029,CST-1368DR,4293,4702,11628,01.180,552
2023-06-10T06:21:46,42.805,6.029,CST-1368DR,4293,4706,11636,01.177,552
2023-06-10T06:24:48,42.805,6.029,CST-1368DR,4293,4703,11629,01.179,552
2023-06-10T06:27:49,42.805,6.029,CST-1368DR,4293,4703,11631,01.178,552
2023-06-10T06:30:52,42.805,6.029,CST-1368DR,4293,4705,11635,01.177,552
2023-06-10T06:33:54,42.805,6.029,CST-1368DR,4293,4704,11632,01.178,552
2023-06-10T06:36:55,42.805,6.029,CST-1368DR,4293,4704,11633,01.178,552
2023-06-10T06:39:57,42.805,6.029,CST-1368DR,4293,4702,11628,01.180,552
2023-06-10T06:42:58,42.805,6.029,CST-1368DR,4293,4703,11629,01.179,552
2023-06-10T06:46:00,42.805,6.029,CST-1368DR,4293,4701,11626,01.180,552
2023-06-10T06:49:02,42.805,6.029,CST-1368DR,4293,4704,11633,01.178,552
2023-06-10T06:52:03,42.805,6.029,CST-1368DR,4293,4705,11634,01.177,552
2023-06-10T06:55:05,42.805,6.029,CST-1368DR,4293,4701,11626,01.180,552
2023-06-10T06:58:06,42.805,6.029,CST-1368DR,4293,4702,11628,01.180,552
2023-06-10T07:01:08,42.805,6.029,CST-1368DR,4293,4702,11628,01.180,552
2023-06-10T07:04:09,42.805,6.029,CST-1368DR,4293,4702,11626,01.180,552
2023-06-10T07:07:11,42.805,6.029,CST-1368DR,4293,4704,11631,01.178,552
2023-06-10T07:10:13,42.805,6.029,CST-1368DR,4293,4703,11629,01.179,552
2023-06-10T07:13:14,42.805,6.029,CST-1368DR,4293,4701,11625,01.181,552
2023-06-10T07:16:16,42.805,6.029,CST-1368DR,4293,4702,11627,01.180,552
2023-06-10T07:19:17,42.805,6.029,CST-1368DR,4293,4700,11623,01.181,552
2023-06-10T07:22:19,42.805,6.029,CST-1368DR,4293,4702,11627,01.180,552
2023-06-10T07:25:21,42.805,6.029,CST-1368DR,4293,4702,11627,01.180,552
2023-06-10T07:28:22,42.805,6.029,CST-1368DR,4293,4701,11626,01.180,552
2023-06-10T07:31:24,42.805,6.029,CST-1368DR,4293,4702,11627,01.180,552
2023-06-10T07:34:25,42.805,6.029,CST-1368DR,4293,4700,11623,01.181,552
2023-06-10T07:37:27,42.805,6.029,CST-1368DR,4293,4700,11621,01.182,552
2023-06-10T07:40:28,42.805,6.029,CST-1368DR,4293,4699,11619,01.183,552
2023-06-10T07:43:30,42.805,6.029,CST-1368DR,4293,4697,11614,01.184,552
2023-06-10T07:46:32,42.805,6.029,CST-1368DR,4293,4699,11619,01.183,552
2023-06-10T07:49:33,42.805,6.029,CST-1368DR,4293,4698,11616,01.184,552
2023-06-10T07:52:35,42.805,6.029,CST-1368DR,4293,4697,11614,01.184,552
2023-06-10T07:55:36,42.805,6.029,CST-1368DR,4293,4696,11613,01.185,552
2023-06-10T07:58:38,42.805,6.029,CST-1368DR,4293,4697,11614,01.184,552
2023-06-10T08:01:39,42.805,6.029,CST-1368DR,4293,4698,11618,01.183,552
2023-06-10T08:04:41,42.805,6.029,CST-1368DR,4293,4698,11616,01.184,552
2023-06-10T08:07:43,42.805,6.029,CST-1368DR,4293,4695,11609,01.186,552
2023-06-10T08:10:44,42.805,6.029,CST-1368DR,4293,4699,11619,01.183,552
2023-06-10T08:13:46,42.805,6.029,CST-1368DR,4293,4698,11618,01.183,552
2023-06-10T08:16:47,42.805,6.029,CST-1368DR,4293,4696,11613,01.185,552
2023-06-10T08:19:49,42.805,6.029,CST-1368DR,4293,4700,11622,01.182,552
2023-06-10T08:22:50,42.805,6.029,CST-1368DR,4293,4699,11619,01.183,552
2023-06-10T08:25:52,42.805,6.029,CST-1368DR,4293,4696,11613,01.185,552
2023-06-10T08:28:54,42.805,6.029,CST-1368DR,4293,4698,11616,01.184,552
2023-06-10T08:31:55,42.805,6.029,CST-1368DR,4293,4696,11611,01.185,552
2023-06-10T08:34:57,42.805,6.029,CST-1368DR,4293,4698,11616,01.184,552
2023-06-10T08:37:58,42.805,6.029,CST-1368DR,4293,4698,11618,01.183,552
2023-06-10T08:41:00,42.805,6.029,CST-1368DR,4293,4699,11619,01.183,552
2023-06-10T08:44:02,42.805,6.029,CST-1368DR,4293,4699,11621,01.182,552
2023-06-10T08:47:03,42.805,6.029,CST-1368DR,4293,4696,11613,01.185,552
2023-06-10T08:50:05,42.805,6.029,CST-1368DR,4293,4695,11610,01.186,552
2023-06-10T08:53:06,42.805,6.029,CST-1368DR,4293,4696,11611,01.185,552
2023-06-10T08:56:08,42.805,6.029,CST-1368DR,4293,4696,11613,01.185,552
2023-06-10T08:59:09,42.805,6.029,CST-1368DR,4293,4699,11619,01.183,552
2023-06-10T09:02:11,42.805,6.029,CST-1368DR,4293,4698,11617,01.183,552
2023-06-10T09:05:13,42.805,6.029,CST-1368DR,4293,4695,11610,01.186,552
2023-06-10T09:08:14,42.805,6.029,CST-1368DR,4293,4693,11606,01.187,552
2023-06-10T09:11:16,42.805,6.029,CST-1368DR,4293,4696,11611,01.185,552
2023-06-10T09:14:17,42.805,6.029,CST-1368DR,4293,4695,11611,01.185,552
2023-06-10T09:17:19,42.805,6.029,CST-1368DR,4293,4695,11610,01.186,552
2023-06-10T09:20:20,42.805,6.029,CST-1368DR,4293,4695,11610,01.186,552
2023-06-10T09:23:22,42.805,6.029,CST-1368DR,4293,4696,11612,01.185,552
2023-06-10T09:26:24,42.805,6.029,CST-1368DR,4293,4696,11611,01.185,552
2023-06-10T09:29:25,42.805,6.029,CST-1368DR,4293,4696,11613,01.185,552
2023-06-10T09:32:27,42.805,6.029,CST-1368DR,4293,4695,11611,01.185,552
2023-06-10T09:35:28,42.805,6.029,CST-1368DR,4293,4695,11610,01.186,552
2023-06-10T09:38:30,42.805,6.029,CST-1368DR,4293,4700,11622,01.182,552
2023-06-10T09:41:32,42.805,6.029,CST-1368DR,4293,4695,11610,01.186,552
2023-06-10T09:44:33,42.805,6.029,CST-1368DR,4293,4692,11603,01.188,552
2023-06-10T09:47:35,42.805,6.029,CST-1368DR,4293,4692,11603,01.188,552
2023-06-10T09:50:36,42.805,6.029,CST-1368DR,4293,4699,11620,01.182,552
2023-06-10T09:53:38,42.805,6.029,CST-1368DR,4293,4695,11609,01.186,552
2023-06-10T09:56:39,42.805,6.029,CST-1368DR,4293,4693,11605,01.187,552
2023-06-10T09:59:41,42.805,6.029,CST-1368DR,4293,4694,11608,01.186,552
2023-06-10T10:02:43,42.805,6.029,CST-1368DR,4293,4692,11603,01.188,552
2023-06-10T10:05:44,42.805,6.029,CST-1368DR,4293,4698,11617,01.183,552
2023-06-10T10:08:46,42.805,6.029,CST-1368DR,4293,4695,11610,01.186,552
2023-06-10T10:11:47,42.805,6.029,CST-1368DR,4293,4695,11610,01.186,552
2023-06-10T10:14:49,42.805,6.029,CST-1368DR,4293,4695,11609,01.186,552
2023-06-10T10:17:51,42.805,6.029,CST-1368DR,4293,4695,11609,01.186,552
2023-06-10T10:20:52,42.805,6.029,CST-1368DR,4293,4694,11607,01.187,552
2023-06-10T10:23:54,42.805,6.029,CST-1368DR,4293,4698,11618,01.183,552
2023-06-10T10:26:55,42.805,6.029,CST-1368DR,4293,4695,11610,01.186,552
2023-06-10T10:29:57,42.805,6.029,CST-1368DR,4293,4694,11607,01.187,552
2023-06-10T10:32:58,42.805,6.029,CST-1368DR,4293,4695,11610,01.186,552
2023-06-10T10:36:00,42.805,6.029,CST-1368DR,4293,4695,11611,01.185,552
2023-06-10T10:39:02,42.805,6.029,CST-1368DR,4293,4698,11618,01.183,552
2023-06-10T10:42:03,42.805,6.029,CST-1368DR,4293,4695,11611,01.185,552
2023-06-10T10:45:05,42.805,6.029,CST-1368DR,4293,4693,11605,01.187,552
2023-06-10T10:48:06,42.805,6.029,CST-1368DR,4293,4696,11613,01.185,552
2023-06-10T10:51:08,42.805,6.029,CST-1368DR,4293,4695,11611,01.185,552
2023-06-10T10:54:09,42.805,6.029,CST-1368DR,4293,4697,11615,01.184,552
2023-06-10T10:57:11,42.805,6.029,CST-1368DR,4293,4696,11613,01.185,552
2023-06-10T11:00:13,42.805,6.029,CST-1368DR,4293,4697,11614,01.184,552
2023-06-10T11:03:14,42.805,6.029,CST-1368DR,4293,4698,11618,01.183,552
2023-06-10T11:06:16,42.805,6.029,CST-1368DR,4293,4697,11614,01.184,552
2023-06-10T11:09:17,42.805,6.029,CST-1368DR,4293,4696,11611,01.185,552
2023-06-10T11:12:19,42.805,6.029,CST-1368DR,4293,4699,11619,01.183,552
2023-06-10T11:15:20,42.805,6.029,CST-1368DR,4293,4699,11619,01.183,552
2023-06-10T11:18:22,42.805,6.029,CST-1368DR,4293,4698,11618,01.183,552
2023-06-10T11:21:24,42.805,6.029,CST-1368DR,4293,4696,11613,01.185,552
2023-06-10T11:24:25,42.805,6.029,CST-1368DR,4293,4694,11607,01.187,552
2023-06-10T11:27:27,42.805,6.029,CST-1368DR,4293,4699,11619,01.183,552
2023-06-10T11:30:28,42.805,6.029,CST-1368DR,4293,4700,11621,01.182,552
2023-06-10T11:33:30,42.805,6.029,CST-1368DR,4293,4695,11610,01.186,552
2023-06-10T11:36:32,42.805,6.029,CST-1368DR,4293,4697,11614,01.184,552
2023-06-10T11:39:33,42.805,6.029,CST-1368DR,4293,4697,11614,01.184,552
2023-06-10T11:42:35,42.805,6.029,CST-1368DR,4293,4699,11620,01.182,552
2023-06-10T11:45:36,42.805,6.029,CST-1368DR,4293,4700,11622,01.182,552
2023-06-10T11:48:38,42.805,6.029,CST-1368DR,4293,4698,11617,01.183,552
2023-06-10T11:51:39,42.805,6.029,CST-1368DR,4293,4698,11616,01.184,552
2023-06-10T11:54:41,42.805,6.029,CST-1368DR,4293,4702,11626,01.180,552
2023-06-10T11:57:43,42.805,6.029,CST-1368DR,4293,4698,11617,01.183,552
2023-06-10T12:00:44,42.805,6.029,CST-1368DR,4293,4696,11611,01.185,552
2023-06-10T12:03:46,42.805,6.029,CST-1368DR,4293,4699,11619,01.183,552
2023-06-10T12:06:47,42.805,6.029,CST-1368DR,4293,4701,11625,01.181,552
2023-06-10T12:09:49,42.805,6.029,CST-1368DR,4293,4700,11621,01.182,552
2023-06-10T12:12:50,42.805,6.029,CST-1368DR,4293,4699,11619,01.183,552
2023-06-10T12:15:52,42.805,6.029,CST-1368DR,4293,4700,11622,01.182,552
2023-06-10T12:18:54,42.805,6.029,CST-1368DR,4293,4701,11625,01.181,552
2023-06-10T12:21:55,42.805,6.029,CST-1368DR,4293,4703,11629,01.179,552
2023-06-10T12:24:57,42.805,6.029,CST-1368DR,4293,4702,11627,01.180,552
2023-06-10T12:27:58,42.805,6.029,CST-1368DR,4293,4702,11627,01.180,552
2023-06-10T12:31:01,42.805,6.029,CST-1368DR,4293,4701,11626,01.180,552
2023-06-10T12:34:03,42.805,6.029,CST-1368DR,4293,4701,11624,01.181,552
2023-06-10T12:37:05,42.805,6.029,CST-1368DR,4293,4699,11621,01.182,552
2023-06-10T12:40:06,42.805,6.029,CST-1368DR,4293,4699,11620,01.182,552
2023-06-10T12:43:08,42.805,6.029,CST-1368DR,4293,4702,11627,01.180,552
2023-06-10T12:46:09,42.805,6.029,CST-1368DR,4293,4696,11613,01.185,552
2023-06-10T12:49:11,42.805,6.029,CST-1368DR,4293,4699,11619,01.183,552
2023-06-10T12:52:12,42.805,6.029,CST-1368DR,4293,4699,11619,01.183,552
2023-06-10T12:55:14,42.805,6.029,CST-1368DR,4293,4698,11618,01.183,552
2023-06-10T12:58:16,42.805,6.029,CST-1368DR,4293,4699,11619,01.183,552
2023-06-10T13:01:17,42.805,6.029,CST-1368DR,4293,4699,11619,01.183,552
2023-06-10T13:04:19,42.805,6.029,CST-1368DR,4293,4701,11624,01.181,552
2023-06-10T13:07:20,42.805,6.029,CST-1368DR,4293,4698,11618,01.183,552
2023-06-10T13:10:22,42.805,6.029,CST-1368DR,4293,4700,11623,01.181,552
2023-06-10T13:13:23,42.805,6.029,CST-1368DR,4293,4699,11619,01.183,552
2023-06-10T13:16:25,42.805,6.029,CST-1368DR,4293,4696,11611,01.185,552
2023-06-10T13:19:27,42.805,6.029,CST-1368DR,4293,4698,11618,01.183,552
2023-06-10T13:22:28,42.805,6.029,CST-1368DR,4293,4705,11634,01.177,552
2023-06-10T13:25:30,42.805,6.029,CST-1368DR,4293,4703,11629,01.179,552
2023-06-10T13:28:31,42.805,6.029,CST-1368DR,4293,4702,11627,01.180,552
2023-06-10T13:31:33,42.805,6.029,CST-1368DR,4293,4703,11631,01.178,552
2023-06-10T13:34:35,42.805,6.029,CST-1368DR,4292,4705,11637,01.176,552
2023-06-10T13:37:36,42.805,6.029,CST-1368DR,4293,4703,11630,01.179,552
2023-06-10T13:40:38,42.805,6.029,CST-1368DR,4293,4700,11623,01.181,552
2023-06-10T13:43:39,42.805,6.029,CST-1368DR,4293,4701,11624,01.181,552
2023-06-10T13:46:41,42.805,6.029,CST-1368DR,4293,4702,11627,01.180,552
2023-06-10T13:49:42,42.805,6.029,CST-1368DR,4293,4701,11625,01.181,552
2023-06-10T13:52:44,42.805,6.029,CST-1368DR,4293,4704,11632,01.178,552
2023-06-10T13:55:46,42.805,6.029,CST-1368DR,4293,4699,11620,01.182,552
2023-06-10T13:58:47,42.805,6.029,CST-1368DR,4293,4705,11634,01.177,552
2023-06-10T14:01:49,42.805,6.029,CST-1368DR,4293,4703,11631,01.178,552
2023-06-10T14:04:50,42.805,6.029,CST-1368DR,4293,4698,11618,01.183,552
2023-06-10T14:07:52,42.805,6.029,CST-1368DR,4293,4703,11631,01.178,552
2023-06-10T14:10:53,42.805,6.029,CST-1368DR,4293,4702,11626,01.180,552
2023-06-10T14:13:55,42.805,6.029,CST-1368DR,4293,4702,11626,01.180,552
2023-06-10T14:16:57,42.805,6.029,CST-1368DR,4293,4703,11629,01.179,552
2023-06-10T14:19:58,42.805,6.029,CST-1368DR,4293,4699,11621,01.182,552
2023-06-10T14:23:00,42.805,6.029,CST-1368DR,4293,4703,11629,01.179,552
2023-06-10T14:26:01,42.805,6.029,CST-1368DR,4293,4707,11640,01.175,552
2023-06-10T14:29:03,42.805,6.029,CST-1368DR,4293,4704,11632,01.178,552
2023-06-10T14:32:05,42.805,6.029,CST-1368DR,4293,4706,11636,01.177,552
2023-06-10T14:35:06,42.805,6.029,CST-1368DR,4293,4703,11630,01.179,552
2023-06-10T14:38:08,42.805,6.029,CST-1368DR,4293,4702,11627,01.180,552
2023-06-10T14:41:09,42.805,6.029,CST-1368DR,4293,4704,11633,01.178,552
2023-06-10T14:44:11,42.805,6.029,CST-1368DR,4293,4702,11627,01.180,552
2023-06-10T14:47:12,42.805,6.029,CST-1368DR,4293,4702,11626,01.180,552
2023-06-10T14:50:14,42.805,6.029,CST-1368DR,4293,4705,11634,01.177,552
2023-06-10T14:53:16,42.805,6.029,CST-1368DR,4293,4704,11632,01.178,552
2023-06-10T14:56:17,42.805,6.029,CST-1368DR,4293,4705,11634,01.177,552
2023-06-10T14:59:19,42.805,6.029,CST-1368DR,4293,4705,11634,01.177,552
2023-06-10T15:02:20,42.805,6.029,CST-1368DR,4293,4705,11634,01.177,552
2023-06-10T15:05:22,42.805,6.029,CST-1368DR,4293,4705,11634,01.177,552
2023-06-10T15:08:24,42.805,6.029,CST-1368DR,4293,4704,11632,01.178,552
2023-06-10T15:11:25,42.805,6.029,CST-1368DR,4293,4704,11631,01.178,552
2023-06-10T15:14:27,42.805,6.029,CST-1368DR,4293,4705,11635,01.177,552
2023-06-10T15:17:28,42.805,6.029,CST-1368DR,4292,4703,11632,01.178,552
2023-06-10T15:20:30,42.805,6.029,CST-1368DR,4293,4704,11632,01.178,552
2023-06-10T15:23:31,42.805,6.029,CST-1368DR,4292,4703,11631,01.178,552
2023-06-10T15:26:33,42.805,6.029,CST-1368DR,4293,4705,11634,01.177,552
2023-06-10T15:29:35,42.805,6.029,CST-1368DR,4293,4706,11636,01.177,552
2023-06-10T15:32:36,42.805,6.029,CST-1368DR,4293,4703,11629,01.179,552
2023-06-10T15:35:38,42.805,6.029,CST-1368DR,4293,4704,11633,01.178,552
2023-06-10T15:38:39,42.805,6.029,CST-1368DR,4292,4704,11634,01.177,552
2023-06-10T15:41:41,42.805,6.029,CST-1368DR,4293,4703,11630,01.179,552
2023-06-10T15:44:42,42.805,6.029,CST-1368DR,4293,4703,11630,01.179,552
2023-06-10T15:47:44,42.805,6.029,CST-1368DR,4293,4704,11631,01.178,552
2023-06-10T15:50:46,42.805,6.029,CST-1368DR,4293,4705,11634,01.177,552
2023-06-10T15:53:47,42.805,6.029,CST-1368DR,4293,4703,11629,01.179,552
2023-06-10T15:56:49,42.805,6.029,CST-1368DR,4293,4700,11623,01.181,552
2023-06-10T15:59:50,42.805,6.029,CST-1368DR,4293,4702,11627,01.180,552
2023-06-10T16:02:52,42.805,6.029,CST-1368DR,4292,4701,11628,01.180,552
2023-06-10T16:05:53,42.805,6.029,CST-1368DR,4293,4703,11631,01.178,552
2023-06-10T16:08:55,42.805,6.029,CST-1368DR,4293,4702,11628,01.180,552
2023-06-10T16:11:57,42.805,6.029,CST-1368DR,4293,4700,11623,01.181,552
2023-06-10T16:14:58,42.805,6.029,CST-1368DR,4292,4702,11630,01.179,552
2023-06-10T16:18:00,42.805,6.029,CST-1368DR,4293,4703,11629,01.179,552
2023-06-10T16:21:01,42.805,6.029,CST-1368DR,4293,4704,11631,01.178,552
2023-06-10T16:24:03,42.805,6.029,CST-1368DR,4293,4702,11627,01.180,552
2023-06-10T16:27:05,42.805,6.029,CST-1368DR,4293,4703,11631,01.178,552
2023-06-10T16:30:06,42.805,6.029,CST-1368DR,4292,4705,11637,01.176,552
2023-06-10T16:33:08,42.805,6.029,CST-1368DR,4292,4698,11621,01.182,552
2023-06-10T16:36:09,42.805,6.029,CST-1368DR,4293,4703,11631,01.178,552